[[{"header":{"parameterUnit":"m.s-1","parameterCategory":1,"la1":30.2991,"la2":30.254,"lo1":-89.0895,"lo2":-89.0444,"dy":0.0017,"dx":0.0017,"nx":28,"ny":28,"refTime":"2026-02-01T09:00:00:Z","depth":0,"parameterNumber":2,"parameterNumberName":"U-component_of_WINDS"},"data":[0,0,0,0,0,0,0,0,0,0,0,0,0,0,0,0,0,0,0,0,0,0,0,0,0,0,0,0,0,0,0,0,0,0,0,0,0,0,0,0,0,0,0,0,0,0,0,0,0,0,0,0,0,0,0,0,0,0,2.2679,2.2679,0,2.2696,2.2697,2.2697,2.2675,2.2675,2.2674,2.2673,2.269,2.2691,2.2692,0,0,0,0,0,0,0,0,0,0,0,0,0,2.2628,2.2629,2.2679,2.2679,2.268,2.2696,2.2697,2.2697,2.2676,2.2675,2.2674,2.2673,2.269,2.2691,2.2692,0,0,0,0,0,0,0,0,0,0,0,0,0,2.2648,2.2629,2.2679,2.2671,2.267,2.2696,2.2697,2.2697,2.2676,2.2675,2.2673,2.2672,2.2689,2.2691,2.2692,2.2727,0,0,2.2698,2.2699,0,0,0,0,0,0,0,0,2.2647,2.265,2.2672,2.2672,2.2671,2.2683,2.2685,2.2707,2.2676,2.2674,2.2673,2.2672,2.2688,2.269,2.2696,2.2728,2.2728,2.2698,2.2699,2.27,2.27,0,0,0,0,0,0,0,2.2646,2.2649,2.2686,2.2672,2.2672,2.2667,2.2668,2.2689,2.2687,2.2674,2.2672,2.2675,2.2688,2.2694,2.2696,2.2729,2.2698,2.27,2.2701,2.2701,2.2791,2.2793,0,0,0,0,0,0,2.2645,2.2648,2.2685,2.2686,2.2656,2.2668,2.267,2.268,2.2687,2.2687,2.2676,2.2674,2.2692,2.2694,2.2697,2.2738,2.27,2.2702,2.2703,2.279,2.2792,2.2793,0,0,0,0,0,0,2.2644,2.2649,2.2685,2.2667,2.2671,2.2671,2.2682,2.2681,2.2687,2.2689,2.2688,2.2683,2.2691,2.2694,2.272,2.2739,2.2702,2.2704,2.2788,2.279,2.2792,2.2822,0,0,0,0,0,0,2.2643,2.2648,2.2661,2.2667,2.2672,2.2708,2.2683,2.2682,2.2691,2.2688,2.2695,2.2695,2.269,2.2718,2.2722,2.274,2.2705,2.2787,2.2789,2.2792,2.2819,2.2824,2.2829,0,0,0,0,0,2.2641,2.2668,2.2662,2.2667,2.2688,2.2709,2.2712,2.2706,2.2692,2.2705,2.2706,2.2695,2.2736,2.272,2.2725,2.2744,2.2786,2.2789,2.2791,2.2817,2.2823,2.2829,0,0,0,0,0,0,2.2664,2.2669,2.2662,2.2692,2.27,2.2705,2.2721,2.2713,2.2725,2.2722,2.2715,2.2716,2.2744,2.2747,2.2729,2.2779,2.2758,2.2763,2.2776,2.2782,2.2787,2.2786,2.2707,0,0,0,0,0,2.2672,2.2689,2.2692,2.2719,2.2723,2.2722,2.273,2.2726,2.2734,2.2737,2.274,2.2748,2.2763,2.2773,2.2786,2.2819,2.2821,2.2835,2.284,2.2844,2.2848,2.2867,2.2873,2.2803,2.2803,2.2803,0,0,2.269,2.2695,2.2705,2.2723,2.2729,2.2746,2.2725,2.2743,2.2756,2.274,2.2765,2.2767,2.2776,2.2806,2.2819,2.2809,2.2868,2.2848,2.2851,2.2853,2.287,2.2877,2.2883,2.2805,2.2805,2.2804,0,0,2.2731,2.2736,2.2759,2.2766,2.2775,2.2775,2.278,2.2787,2.2788,2.2813,2.2802,2.2817,2.2842,2.2849,2.2856,2.2903,2.2892,2.2907,2.2933,2.2952,2.2957,2.2962,2.2979,2.2985,2.2911,2.2911,2.2911,0,2.2752,2.2777,2.2772,2.2792,2.2801,2.2788,2.2811,2.2818,2.2831,2.2837,2.2826,2.2859,2.2864,2.2896,2.2907,2.2913,2.292,2.2906,2.2957,2.2962,2.2966,2.2982,2.2989,2.2913,2.2912,2.2912,2.2912,0,2.2803,2.2821,2.2839,2.2853,2.2863,2.2885,2.2883,2.2895,2.289,2.289,2.2917,2.2922,2.2938,2.2945,2.294,2.2977,2.297,2.2958,2.2937,2.2975,2.299,2.2996,2.2915,2.2914,2.2914,2.2914,0,0,2.2857,2.287,2.2876,2.2883,2.2894,2.2908,2.2929,2.2945,2.2955,2.2965,2.2984,2.3007,2.2996,2.3004,2.3,2.3016,2.3053,2.3002,2.3002,2.3012,2.3095,2.3105,2.3112,2.3047,2.3048,2.3049,2.3095,0,2.2899,2.2937,2.2934,2.297,2.2987,2.2976,2.2995,2.3003,2.3005,2.302,2.3022,2.3038,2.3023,2.3028,2.3043,2.3045,2.307,2.3042,2.3064,2.3065,2.3062,2.312,2.3129,2.3172,2.3101,2.3102,2.3102,0,2.2953,2.2966,2.3004,2.3013,2.302,2.3037,2.3052,2.3067,2.3077,2.3077,2.3087,2.308,2.3103,2.3082,2.3113,2.3094,2.3103,2.3106,2.3107,2.3109,2.3086,2.3123,2.3186,2.3192,2.3112,2.3111,2.311,0,2.299,2.3017,2.3043,2.305,2.3061,2.3073,2.3079,2.3087,2.3098,2.3111,2.3117,2.3133,2.3141,2.3153,2.3151,2.3136,2.3183,2.3162,2.3184,2.3184,2.3194,2.3194,2.3259,2.32,2.32,2.32,2.32,0,2.3037,2.306,2.306,2.3077,2.3103,2.31,2.3126,2.313,2.3138,2.3156,2.3146,2.3163,2.3159,2.3175,2.3174,2.3201,2.3204,2.3205,2.3205,2.3206,2.3206,2.3212,2.3209,2.3202,2.3201,2.3201,2.3201,0,2.3082,2.3083,2.3111,2.312,2.3123,2.3142,2.315,2.3166,2.3167,2.3189,2.3194,2.3196,2.3215,2.3215,2.3236,2.3235,2.3268,2.3264,2.3265,2.3264,2.3286,2.3285,2.3358,2.3368,2.3302,2.3303,2.3303,0,2.3112,2.313,2.3142,2.3153,2.3159,2.3177,2.3188,2.3185,2.3197,2.3211,2.3225,2.3243,2.3258,2.3289,2.3292,2.3309,2.3305,2.333,2.3308,2.3309,2.3306,2.3305,2.3307,2.3334,2.3335,2.3336,2.3336,0,2.3165,2.3165,2.3181,2.3198,2.3211,2.3224,2.3236,2.3246,2.3244,2.3258,2.3278,2.3289,2.3312,2.333,2.3347,2.3352,2.3344,2.3343,2.3349,2.3351,2.3351,2.3352,2.3277,2.3341,2.3341,2.334,2.334,2.334,2.3204,2.322,2.3231,2.325,2.3259,2.3271,2.3286,2.329,2.3307,2.3325,2.3323,2.3345,2.3356,2.3378,2.3385,2.3402,2.3393,2.3402,2.3404,2.3407,2.3409,2.3349,2.3405,2.3405,2.3405,2.3405,2.3405,0,2.3257,2.3264,2.3281,2.3299,2.3314,2.3306,2.3319,2.3332,2.3352,2.3363,2.3378,2.3402,2.342,2.3426,2.3444,2.3457,2.3454,2.3462,2.346,2.3462,2.3416,2.3409,2.3464,2.3464,2.3464,2.3464,2.3464,2.3464,2.3287,2.3314,2.3316,2.3348,2.3355,2.3377,2.3386,2.3397,2.3406,2.3432,2.3448,2.3452,2.3461,2.348,2.3497,2.3498,2.3505,2.3515,2.3514,2.3471,2.3465,2.3459,2.3453,2.3516,2.3516,2.3559,2.356,2.356]},{"header":{"parameterUnit":"m.s-1","parameterCategory":1,"la1":30.2991,"la2":30.254,"lo1":-89.0895,"lo2":-89.0444,"dy":0.0017,"dx":0.0017,"nx":28,"ny":28,"refTime":"2026-02-01T09:00:00:Z","depth":0,"parameterNumber":3,"parameterNumberName":"V-component_of_WINDS"},"data":[0,0,0,0,0,0,0,0,0,0,0,0,0,0,0,0,0,0,0,0,0,0,0,0,0,0,0,0,0,0,0,0,0,0,0,0,0,0,0,0,0,0,0,0,0,0,0,0,0,0,0,0,0,0,0,0,0,0,-4.8236,-4.8237,0,-4.8362,-4.8363,-4.8364,-4.8373,-4.8372,-4.837,-4.8369,-4.8494,-4.8498,-4.8503,0,0,0,0,0,0,0,0,0,0,0,0,0,-4.8001,-4.8006,-4.8236,-4.8238,-4.8239,-4.8361,-4.8363,-4.8365,-4.8373,-4.8371,-4.837,-4.8368,-4.8492,-4.8498,-4.8503,0,0,0,0,0,0,0,0,0,0,0,0,0,-4.8113,-4.8007,-4.8236,-4.8258,-4.8261,-4.8361,-4.8363,-4.8365,-4.8374,-4.8371,-4.8369,-4.8367,-4.849,-4.8497,-4.8504,-4.8588,0,0,-4.8525,-4.8528,0,0,0,0,0,0,0,0,-4.8106,-4.8121,-4.8253,-4.8257,-4.8261,-4.835,-4.8326,-4.844,-4.8374,-4.8331,-4.8369,-4.8366,-4.8447,-4.8457,-4.8485,-4.8594,-4.86,-4.8526,-4.853,-4.8533,-4.8535,0,0,0,0,0,0,0,-4.8099,-4.8116,-4.8285,-4.8255,-4.826,-4.8261,-4.8275,-4.8348,-4.8399,-4.8334,-4.8335,-4.835,-4.8449,-4.8479,-4.8488,-4.8601,-4.8525,-4.8532,-4.8536,-4.8539,-4.8788,-4.879,0,0,0,0,0,0,-4.8087,-4.8109,-4.8282,-4.8289,-4.8177,-4.8267,-4.8282,-4.8323,-4.8398,-4.8408,-4.8352,-4.835,-4.8468,-4.848,-4.8493,-4.8598,-4.8533,-4.8539,-4.8543,-4.8785,-4.8788,-4.8791,0,0,0,0,0,0,-4.8082,-4.8102,-4.8276,-4.82,-4.8222,-4.8273,-4.8319,-4.8327,-4.8357,-4.8412,-4.842,-4.8374,-4.8467,-4.8483,-4.8565,-4.8603,-4.8542,-4.8549,-4.8782,-4.8786,-4.879,-4.8809,0,0,0,0,0,0,-4.8075,-4.81,-4.8133,-4.82,-4.8226,-4.8348,-4.8321,-4.8331,-4.8369,-4.8368,-4.8434,-4.8443,-4.8466,-4.8555,-4.8572,-4.8611,-4.8554,-4.8779,-4.8784,-4.8788,-4.8805,-4.8813,-4.8819,0,0,0,0,0,-4.8067,-4.8133,-4.8135,-4.8156,-4.8269,-4.835,-4.8364,-4.8391,-4.8372,-4.8406,-4.8441,-4.8441,-4.8596,-4.8563,-4.8583,-4.8624,-4.8777,-4.8783,-4.8788,-4.8802,-4.8811,-4.8819,0,0,0,0,0,0,-4.8067,-4.8142,-4.8145,-4.8235,-4.8286,-4.8351,-4.8394,-4.84,-4.8456,-4.8453,-4.8482,-4.8497,-4.8579,-4.8609,-4.8572,-4.8711,-4.8684,-4.8694,-4.8688,-4.8697,-4.8704,-4.8696,-4.856,0,0,0,0,0,-4.8078,-4.8138,-4.82,-4.8273,-4.8299,-4.8342,-4.8378,-4.8395,-4.8448,-4.847,-4.8511,-4.8562,-4.8622,-4.8661,-4.872,-4.8809,-4.8825,-4.8848,-4.8855,-4.886,-4.8869,-4.892,-4.8931,-4.8809,-4.8809,-4.8809,0,0,-4.81,-4.8148,-4.8184,-4.8275,-4.8316,-4.8378,-4.836,-4.8425,-4.8472,-4.8479,-4.856,-4.8592,-4.8651,-4.8738,-4.8778,-4.8766,-4.8906,-4.8867,-4.8872,-4.8877,-4.8927,-4.8938,-4.8949,-4.8813,-4.8812,-4.8812,0,0,-4.8173,-4.8215,-4.8282,-4.8324,-4.8388,-4.8417,-4.8433,-4.8498,-4.852,-4.8602,-4.8609,-4.8664,-4.8767,-4.8809,-4.8844,-4.8935,-4.8937,-4.8953,-4.899,-4.904,-4.9049,-4.9058,-4.9092,-4.9103,-4.8961,-4.8961,-4.8961,0,-4.8192,-4.8287,-4.8315,-4.8381,-4.8421,-4.8432,-4.85,-4.854,-4.8619,-4.8646,-4.8631,-4.8762,-4.8802,-4.89,-4.8923,-4.895,-4.897,-4.8946,-4.9046,-4.9055,-4.9064,-4.9096,-4.9108,-4.8962,-4.8962,-4.8962,-4.8962,0,-4.8308,-4.8373,-4.8419,-4.8498,-4.8542,-4.8609,-4.8647,-4.8689,-4.8701,-4.8731,-4.8815,-4.8865,-4.8934,-4.8958,-4.897,-4.9058,-4.9049,-4.904,-4.9014,-4.9076,-4.9107,-4.912,-4.8965,-4.8964,-4.8964,-4.8963,0,0,-4.8384,-4.8479,-4.8495,-4.8532,-4.8604,-4.8654,-4.8721,-4.8791,-4.8827,-4.8881,-4.8938,-4.9026,-4.9019,-4.9059,-4.9076,-4.9119,-4.919,-4.9105,-4.9107,-4.912,-4.9291,-4.9299,-4.9312,-4.9192,-4.9194,-4.9196,-4.9287,0,-4.8465,-4.8587,-4.8615,-4.872,-4.8781,-4.8793,-4.8852,-4.8902,-4.8932,-4.8988,-4.902,-4.9083,-4.9068,-4.9092,-4.9136,-4.9172,-4.9225,-4.9166,-4.9245,-4.9248,-4.9232,-4.9329,-4.9336,-4.9419,-4.9299,-4.9301,-4.9303,0,-4.8577,-4.8636,-4.8747,-4.8813,-4.884,-4.8892,-4.8959,-4.9012,-4.907,-4.9088,-4.9134,-4.9147,-4.9217,-4.9187,-4.9285,-4.9244,-4.9278,-4.9301,-4.9305,-4.9314,-4.928,-4.9341,-4.9446,-4.9459,-4.9322,-4.932,-4.9319,0,-4.8623,-4.873,-4.8811,-4.8841,-4.892,-4.8957,-4.8991,-4.9046,-4.9087,-4.9145,-4.9172,-4.9236,-4.9272,-4.9322,-4.9352,-4.9327,-4.9448,-4.942,-4.9465,-4.9465,-4.9491,-4.9489,-4.9604,-4.9511,-4.9511,-4.9511,-4.951,0,-4.8712,-4.8779,-4.8833,-4.8883,-4.8959,-4.8991,-4.9065,-4.9099,-4.9149,-4.9205,-4.9219,-4.9271,-4.9307,-4.9365,-4.9388,-4.9466,-4.9482,-4.9499,-4.9505,-4.9499,-4.9497,-4.9522,-4.9518,-4.9514,-4.9513,-4.9512,-4.9512,0,-4.8776,-4.8815,-4.8904,-4.8972,-4.899,-4.9044,-4.9101,-4.915,-4.9181,-4.9252,-4.927,-4.9319,-4.9387,-4.9422,-4.9507,-4.9523,-4.9611,-4.9613,-4.9592,-4.9595,-4.9639,-4.9635,-4.9776,-4.9796,-4.9688,-4.9689,-4.969,0,-4.8831,-4.8884,-4.8958,-4.8998,-4.9033,-4.9096,-4.9138,-4.9172,-4.9215,-4.9285,-4.9326,-4.9395,-4.9453,-4.9561,-4.9603,-4.9669,-4.9673,-4.9717,-4.9682,-4.9675,-4.9675,-4.9672,-4.9678,-4.9724,-4.9725,-4.9725,-4.9726,0,-4.8924,-4.8941,-4.9002,-4.9071,-4.9122,-4.9176,-4.9231,-4.9262,-4.9304,-4.9352,-4.9423,-4.9468,-4.9556,-4.9625,-4.9693,-4.9728,-4.9734,-4.9737,-4.9751,-4.9746,-4.9733,-4.9742,-4.9611,-4.9734,-4.9733,-4.9732,-4.9732,-4.9732,-4.8987,-4.9035,-4.9095,-4.9163,-4.9208,-4.9259,-4.9309,-4.9347,-4.9407,-4.9483,-4.9498,-4.9574,-4.9631,-4.9724,-4.9761,-4.982,-4.9811,-4.9831,-4.9836,-4.9841,-4.9844,-4.9723,-4.9832,-4.9832,-4.9832,-4.9832,-4.9832,0,-4.9082,-4.9122,-4.9184,-4.9261,-4.9315,-4.9318,-4.9378,-4.9423,-4.949,-4.9543,-4.96,-4.9683,-4.975,-4.9798,-4.9867,-4.9905,-4.991,-4.9922,-4.992,-4.9928,-4.9848,-4.9829,-4.9917,-4.9917,-4.9917,-4.9917,-4.9917,-4.9917,-4.9138,-4.9221,-4.9245,-4.935,-4.9389,-4.9465,-4.9499,-4.9546,-4.959,-4.9682,-4.9739,-4.977,-4.9822,-4.9895,-4.9957,-4.9969,-4.9994,-5.0006,-5.0019,-4.9943,-4.9934,-4.9925,-4.9908,-5.0011,-5.0011,-5.0095,-5.0096,-5.0096]}]]